Regional Weather Roundup
Issued by NWS Newport/Morehead, NC

Current Version | Previous Version | Graphics & Text | Print | Product List | Glossary Off
Versions: 1 2 3 4 5 6 7 8 9 10 11 12 13 14 15 16 17 18 19 20 21 22 23 24 25 26 27 28 29 30 31 32 33 34 35 36 37 38 39 40 41 42 43 44 45 46 47 48 49 50

737
ASUS42 KMHX 290613
RWRMHX
WEATHER ROUNDUP FOR EASTERN NORTH CAROLINA
NATIONAL WEATHER SERVICE NEWPORT/MOREHEAD CITY NC
200 AM EDT FRI JUL 29 2016

NOTE: "FAIR" INDICATES FEW OR NO CLOUDS BELOW 12,000 FEET
WITH NO SIGNIFICANT WEATHER AND/OR OBSTRUCTIONS TO VISIBILITY

NCZ015>017-031-032-045>047-102-103-290700-
NORTH COAST

CITY           SKY/WX    TMP DP  RH WIND       PRES   REMARKS
EDENTON        CLEAR     86  72  62 SW9       29.87R
ELIZABETH CITY CLEAR     83  74  74 SW10      29.85S
KITTY HAWK     PTCLDY    84  75  74 SW7       29.86S
MANTEO           N/A     84  78  81 SW10      29.87F

$$

NCZ045>047-081-094-103-104-290700-
CENTRAL COAST

CITY           SKY/WX    TMP DP  RH WIND       PRES   REMARKS
FRISCO         CLEAR     82  78  88 SW10      29.90R

$$

NCZ095-097-098-100-101-290700-
SOUTHERN COAST

CITY           SKY/WX    TMP DP  RH WIND       PRES   REMARKS
BEAUFORT       CLEAR     83  78  85 SW15      29.89S
CEDAR ISLAND   NOT AVBL
JACKSONVILLE   CLEAR     81  75  82 SW8       29.89S
PINEY ISLAND   NOT AVBL
WILMINGTON     CLEAR     82  76  81 SW8       29.92R


$$

NCZ011>013-027>030-043-044-078>080-089-090>093-098-290700-
COASTAL PLAIN

CITY           SKY/WX    TMP DP  RH WIND       PRES   REMARKS
AHOSKIE        CLEAR     79  72  79 S3        29.85F
CLINTON        CLEAR     82  76  81 SW5       29.90S
ELIZABETHTOWN  CLEAR     82  76  84 S5        29.91S
GOLDSBORO      CLEAR     82  79  88 SW9       29.87R
GREENVILLE     CLEAR     82  75  78 SW8       29.90S
HAVELOCK       CLEAR     81  75  82 SW8       29.90S
KENANSVILLE    NOT AVBL
KINSTON        CLEAR     82  74  76 SW8       29.89S
NEW BERN       CLEAR     80  74  81 SW6       29.90S
RICHLANDS      CLEAR     80  76  87 SW9       29.90S
ROCKY MOUNT    CLEAR     80  73  79 S6        29.87S
WASHINGTON     CLEAR     81  74  81 SW7       29.88R
WHITEVILLE     CLEAR     80  75  85 S5        29.91S

$$

AMZ130-135-150-152-154-156-158-170-250-252-270-ANZ085-086-088-633-658-670-290700-
MARINE OBSERVATIONS

STATION/POSITION TIME  TEMP    WIND        PRES    WAVE   SWELL
                       AIR SEA DIR/SP/G            HT/PER HT/PER
                 (UTC) (F)     (DEG/KT/KT) (MB)    (FT/S) (FT/S)
CHESAPEAKE LIGHT NOT AVBL
64 E VA BEACH    0550   83 81  210/ 12/ 14 1010.7    3/ 4   2/ 6
DUCK             0500   86 69  220/ 13/ 18 1010.4
2 E DUCK         0511      75                N/A     1/ 7
OREGON INLET     0500   85 81  240/ 13/ 15 1011.6
13E OREGON INLT  0500      81                N/A     3/ 4   2/ 7
HATTERAS CG      0500   83 84  230/ 10/ 17 1011.5
DIAMOND BUOY     0550   85 85  240/ 17/ 21 1012.2    4/ 5   2/ 8
CAPE LOOKOUT     0600   84     240/ 12/ 16 1012.1
BEAUFORT LAB     0500   83 84  240/  7/ 12 1011.8
30 SE NEW RVR IN 0508   85 85  230/ 17/ 23 1012.7
30 SE NEW RVR IN 0525      85                N/A     5/ 6
27 SE WRIGHTSVLE 0508   85 84  230/ 17/ 23 1013.1
5 SE WRIGHTSVLE  0508   83 80  250/ 14/ 17 1013.7
225 S CAPE HAT   0550   84 84  250/ 10/ 10 1015.4    3/ 7   3/ 7
41 SE CHARLESTON 0550   86 86  230/ 21/ 23 1013.7    4/ 5

$$




USA.gov is the U.S. government's official web portal to all federal, state and local government web resources and services.